Retour au catalogue

COSMOS 839 DEB

ActifUNKNOWN
NORAD 10417·DEBRIS·🇷🇺 Russia

Lancé Jul 8, 1976 depuis Plesetsk Cosmodrome

Loading…

Prochains Passages (prochaines 24 heures)

TLE

FraisSource: Space-Track

Époque: Sep 14, 2026, 10:07 UTC

1 10417U 76067L   26257.42189403 -.00000024  00000-0  90216-4 0  9991
2 10417  65.5794 259.3427 0725334 127.7718  17.3908 12.47237270541069

Suivez COSMOS 839 DEB en temps réel avec AllMySat

Download on the App Store